[[{"header":{"parameterUnit":"m.s-1","parameterCategory":1,"la1":30.2991,"la2":30.254,"lo1":-89.0895,"lo2":-89.0444,"dy":0.0017,"dx":0.0017,"nx":28,"ny":28,"refTime":"2024-06-12T09:00:00:Z","depth":0,"parameterNumber":2,"parameterNumberName":"U-component_of_WINDS"},"data":[0,0,0,0,0,0,0,0,0,0,0,0,0,0,0,0,0,0,0,0,0,0,0,0,0,0,0,0,0,0,0,0,0,0,0,0,0,0,0,0,0,0,0,0,0,0,0,0,0,0,0,0,0,0,0,0,0,0,0.1653,0.1654,0,0.1695,0.1695,0.1696,0.1784,0.1786,0.1788,0.179,0.1831,0.183,0.183,0,0,0,0,0,0,0,0,0,0,0,0,0,0.1651,0.1651,0.1653,0.1654,0.1654,0.1695,0.1695,0.1696,0.1784,0.1786,0.1788,0.179,0.1831,0.183,0.183,0,0,0,0,0,0,0,0,0,0,0,0,0,0.1668,0.1651,0.1653,0.1703,0.1708,0.1695,0.1695,0.1696,0.1784,0.1786,0.1789,0.1791,0.1831,0.183,0.1829,0.177,0,0,0.1827,0.1826,0,0,0,0,0,0,0,0,0.1667,0.1668,0.1695,0.17,0.1705,0.1737,0.171,0.1721,0.1783,0.1755,0.179,0.1793,0.1797,0.1799,0.1801,0.1772,0.1774,0.1827,0.1826,0.1826,0.1826,0,0,0,0,0,0,0,0.1666,0.1667,0.167,0.1696,0.1702,0.1724,0.1729,0.1712,0.176,0.1758,0.1764,0.1768,0.1801,0.1802,0.1803,0.1774,0.1827,0.1826,0.1825,0.1825,0.17,0.1697,0,0,0,0,0,0,0.1658,0.1665,0.1668,0.1671,0.1693,0.1722,0.1728,0.1724,0.1761,0.1769,0.1765,0.1772,0.1802,0.1804,0.1805,0.1737,0.1826,0.1825,0.1824,0.1702,0.1699,0.1696,0,0,0,0,0,0,0.1657,0.1657,0.1667,0.167,0.1673,0.1719,0.1714,0.1724,0.1725,0.1767,0.1776,0.1758,0.1804,0.1806,0.1778,0.174,0.1825,0.1824,0.1706,0.1701,0.1697,0.1601,0,0,0,0,0,0,0.1657,0.1656,0.1634,0.1669,0.1672,0.1639,0.1712,0.1722,0.1723,0.1732,0.1762,0.177,0.1806,0.1779,0.1777,0.174,0.1823,0.1709,0.1704,0.1699,0.1608,0.1594,0.1583,0,0,0,0,0,0.1656,0.1605,0.1632,0.1632,0.1645,0.1637,0.1639,0.1682,0.172,0.1698,0.1725,0.1769,0.1745,0.1775,0.1774,0.1736,0.1712,0.1705,0.1699,0.1614,0.1597,0.1583,0,0,0,0,0,0,0.1563,0.161,0.1641,0.1599,0.1613,0.1652,0.1625,0.1663,0.1666,0.1674,0.1729,0.1735,0.1699,0.1716,0.1749,0.1681,0.1736,0.1729,0.1671,0.1655,0.1643,0.1638,0.1822,0,0,0,0,0,0.1537,0.1526,0.1569,0.1528,0.1533,0.1578,0.1576,0.1608,0.1625,0.1631,0.1657,0.1671,0.1667,0.1663,0.1661,0.1612,0.162,0.1586,0.1573,0.1562,0.1555,0.153,0.1515,0.1675,0.1675,0.1675,0,0,0.1484,0.1509,0.1498,0.151,0.1524,0.1512,0.1582,0.1565,0.1556,0.1629,0.1603,0.1623,0.1643,0.1604,0.1588,0.1616,0.1513,0.1554,0.1545,0.1544,0.1522,0.1506,0.1493,0.1671,0.1672,0.1672,0,0,0.1381,0.1399,0.1366,0.1381,0.1403,0.1433,0.1425,0.1458,0.1474,0.145,0.1504,0.1495,0.1487,0.1499,0.1504,0.1408,0.1448,0.1406,0.1338,0.1313,0.1301,0.129,0.1254,0.124,0.1399,0.1399,0.1399,0,0.1311,0.1294,0.1345,0.1325,0.1328,0.1395,0.1363,0.1374,0.1394,0.1394,0.1427,0.1418,0.1437,0.1401,0.1378,0.1381,0.1373,0.1401,0.1299,0.1288,0.1278,0.1245,0.1231,0.1394,0.1394,0.1395,0.1395,0,0.1208,0.1196,0.1167,0.1185,0.1186,0.116,0.1206,0.1201,0.1235,0.1262,0.1238,0.1262,0.1267,0.1262,0.1295,0.1232,0.1248,0.1289,0.1344,0.1257,0.1226,0.1214,0.1386,0.1388,0.1389,0.1391,0,0,0.1042,0.1091,0.1079,0.1089,0.1119,0.1111,0.1089,0.1094,0.1088,0.1101,0.1083,0.1076,0.1114,0.112,0.1155,0.1133,0.1054,0.1177,0.1178,0.1151,0.0986,0.0953,0.0937,0.1083,0.1081,0.1079,0.0983,0,0.0943,0.0907,0.0953,0.0907,0.0896,0.0961,0.0942,0.0959,0.0985,0.098,0.1009,0.1002,0.1053,0.1057,0.1039,0.1068,0.1021,0.1076,0.1065,0.1064,0.1055,0.0921,0.0886,0.0794,0.0972,0.097,0.0968,0,0.0822,0.083,0.0782,0.0817,0.0815,0.0796,0.0805,0.08,0.0821,0.0842,0.0849,0.0892,0.0873,0.0929,0.0903,0.0939,0.0939,0.0952,0.095,0.0948,0.1008,0.0913,0.0766,0.0751,0.095,0.0952,0.0953,0,0.0703,0.0702,0.0674,0.068,0.0721,0.0706,0.0722,0.0747,0.0747,0.0756,0.0757,0.0763,0.0766,0.077,0.0813,0.0851,0.0782,0.0842,0.0797,0.0796,0.0777,0.0776,0.0624,0.0781,0.0781,0.0781,0.0782,0,0.0586,0.0554,0.0621,0.0603,0.057,0.0624,0.059,0.0613,0.0634,0.0622,0.068,0.0667,0.0727,0.0721,0.0755,0.0728,0.073,0.0745,0.0754,0.0738,0.0735,0.0735,0.0741,0.0778,0.0779,0.0779,0.078,0,0.0445,0.0489,0.0462,0.0504,0.0514,0.0487,0.0523,0.0508,0.0539,0.0523,0.0523,0.0571,0.0567,0.0612,0.0617,0.064,0.0596,0.0618,0.0588,0.0594,0.0546,0.0548,0.0386,0.0367,0.0538,0.0536,0.0535,0,0.0366,0.0343,0.0383,0.0379,0.0392,0.0386,0.0388,0.0442,0.0441,0.0464,0.0447,0.0448,0.0451,0.0443,0.0478,0.0482,0.0502,0.0446,0.0503,0.0488,0.0499,0.0498,0.0496,0.0432,0.043,0.0428,0.0427,0,0.022,0.0243,0.0243,0.0251,0.0251,0.026,0.0273,0.0267,0.0326,0.0322,0.0319,0.0322,0.0328,0.0328,0.034,0.0357,0.04,0.0409,0.0398,0.038,0.0363,0.0369,0.0552,0.0411,0.0413,0.0414,0.0415,0.0415,0.0106,0.0088,0.0114,0.0112,0.0128,0.0139,0.0127,0.0158,0.0156,0.0165,0.0198,0.0189,0.0213,0.0233,0.0247,0.0241,0.0269,0.0254,0.0249,0.0244,0.0234,0.0367,0.0243,0.0244,0.0244,0.0245,0.0245,0,-0.004,-0.0019,-0.0021,-0.0005,-0.0006,0.0039,0.0055,0.0051,0.0043,0.0062,0.0065,0.0062,0.0063,0.0099,0.0105,0.0093,0.0114,0.0093,0.0092,0.0095,0.021,0.0217,0.0076,0.0076,0.0076,0.0076,0.0076,0.0076,-0.0116,-0.0143,-0.0116,-0.0135,-0.0113,-0.0122,-0.0116,-0.0105,-0.009,-0.0096,-0.0094,-0.007,-0.0044,-0.0035,-0.0032,-0.0021,-0.0023,-0.0051,-0.0034,0.0071,0.0087,0.0103,0.011,-0.0052,-0.0052,-0.0148,-0.0149,-0.015]},{"header":{"parameterUnit":"m.s-1","parameterCategory":1,"la1":30.2991,"la2":30.254,"lo1":-89.0895,"lo2":-89.0444,"dy":0.0017,"dx":0.0017,"nx":28,"ny":28,"refTime":"2024-06-12T09:00:00:Z","depth":0,"parameterNumber":3,"parameterNumberName":"V-component_of_WINDS"},"data":[0,0,0,0,0,0,0,0,0,0,0,0,0,0,0,0,0,0,0,0,0,0,0,0,0,0,0,0,0,0,0,0,0,0,0,0,0,0,0,0,0,0,0,0,0,0,0,0,0,0,0,0,0,0,0,0,0,0,-1.6697,-1.6699,0,-1.6817,-1.6819,-1.682,-1.689,-1.689,-1.6891,-1.6891,-1.7012,-1.7014,-1.7017,0,0,0,0,0,0,0,0,0,0,0,0,0,-1.6528,-1.6531,-1.6697,-1.6699,-1.67,-1.6817,-1.6819,-1.682,-1.689,-1.689,-1.6891,-1.6891,-1.7011,-1.7014,-1.7018,0,0,0,0,0,0,0,0,0,0,0,0,0,-1.662,-1.6532,-1.6697,-1.6749,-1.6755,-1.6817,-1.6819,-1.6821,-1.689,-1.689,-1.6891,-1.6891,-1.7009,-1.7014,-1.7018,-1.7037,0,0,-1.7032,-1.7034,0,0,0,0,0,0,0,0,-1.6615,-1.6626,-1.674,-1.6746,-1.6752,-1.6839,-1.6804,-1.6893,-1.689,-1.6839,-1.6891,-1.6891,-1.6954,-1.6963,-1.6984,-1.7042,-1.7047,-1.7032,-1.7035,-1.7037,-1.7038,0,0,0,0,0,0,0,-1.6609,-1.6622,-1.6745,-1.6741,-1.6749,-1.6767,-1.678,-1.6821,-1.6892,-1.6843,-1.6848,-1.6862,-1.6957,-1.698,-1.6988,-1.7049,-1.7032,-1.7036,-1.7038,-1.704,-1.7132,-1.7132,0,0,0,0,0,0,-1.6594,-1.6616,-1.6741,-1.6748,-1.6683,-1.6769,-1.6784,-1.6811,-1.6892,-1.6905,-1.6861,-1.6865,-1.6972,-1.6982,-1.6992,-1.7022,-1.7037,-1.7041,-1.7043,-1.7132,-1.7132,-1.7132,0,0,0,0,0,0,-1.659,-1.6604,-1.6736,-1.6684,-1.6702,-1.6772,-1.6801,-1.6813,-1.6836,-1.6906,-1.6919,-1.6871,-1.6973,-1.6986,-1.7026,-1.7027,-1.7043,-1.7047,-1.7132,-1.7132,-1.7132,-1.7079,0,0,0,0,0,0,-1.6585,-1.6603,-1.661,-1.6683,-1.6704,-1.6768,-1.6801,-1.6815,-1.6843,-1.6849,-1.6919,-1.6931,-1.6974,-1.7019,-1.703,-1.7033,-1.705,-1.7133,-1.7132,-1.7132,-1.7081,-1.7077,-1.7073,0,0,0,0,0,-1.6579,-1.6589,-1.661,-1.6625,-1.6715,-1.6767,-1.6779,-1.683,-1.6843,-1.6852,-1.6897,-1.6928,-1.7024,-1.7022,-1.7036,-1.704,-1.7133,-1.7132,-1.7132,-1.7082,-1.7077,-1.7073,0,0,0,0,0,0,-1.6513,-1.66,-1.6624,-1.6658,-1.6705,-1.6779,-1.6791,-1.6823,-1.6866,-1.6869,-1.6929,-1.6945,-1.6979,-1.7013,-1.701,-1.7064,-1.7082,-1.7084,-1.704,-1.7036,-1.7032,-1.7024,-1.7054,0,0,0,0,0,-1.6502,-1.6538,-1.6612,-1.6635,-1.6658,-1.672,-1.6745,-1.678,-1.6831,-1.6851,-1.6899,-1.6946,-1.6988,-1.7014,-1.7055,-1.7086,-1.7103,-1.7095,-1.7091,-1.7088,-1.7089,-1.7111,-1.7109,-1.713,-1.713,-1.713,0,0,-1.6481,-1.6533,-1.6551,-1.6624,-1.6664,-1.67,-1.6736,-1.6772,-1.68,-1.6856,-1.6898,-1.6935,-1.6992,-1.7028,-1.7046,-1.7057,-1.7088,-1.7087,-1.7084,-1.7088,-1.711,-1.7108,-1.7106,-1.713,-1.713,-1.713,0,0,-1.6461,-1.6503,-1.6529,-1.6569,-1.6631,-1.6673,-1.6679,-1.6749,-1.6776,-1.6819,-1.6863,-1.6897,-1.6966,-1.7006,-1.7035,-1.7033,-1.7064,-1.7045,-1.7025,-1.7045,-1.7044,-1.7042,-1.7044,-1.7043,-1.7046,-1.7046,-1.7045,0,-1.6427,-1.6483,-1.6538,-1.6572,-1.6604,-1.6658,-1.6685,-1.6721,-1.6792,-1.6813,-1.6824,-1.6915,-1.6956,-1.7004,-1.7004,-1.7025,-1.7035,-1.7037,-1.7039,-1.7039,-1.7039,-1.7041,-1.7041,-1.7043,-1.7043,-1.7044,-1.7044,0,-1.6439,-1.6477,-1.6491,-1.6561,-1.6593,-1.6623,-1.6683,-1.671,-1.6742,-1.6783,-1.6828,-1.688,-1.6935,-1.6949,-1.698,-1.7001,-1.7007,-1.7028,-1.7048,-1.7033,-1.7036,-1.7037,-1.7039,-1.704,-1.7041,-1.7042,0,0,-1.638,-1.6482,-1.6486,-1.6519,-1.6592,-1.6623,-1.6656,-1.6711,-1.6734,-1.6781,-1.6812,-1.687,-1.6892,-1.6925,-1.6961,-1.6979,-1.6977,-1.6999,-1.7001,-1.6994,-1.7006,-1.6991,-1.699,-1.6998,-1.6998,-1.6998,-1.7002,0,-1.6372,-1.6436,-1.6487,-1.6532,-1.6569,-1.6622,-1.6652,-1.67,-1.674,-1.6777,-1.6821,-1.6862,-1.6886,-1.6907,-1.6926,-1.6973,-1.698,-1.6973,-1.7027,-1.7029,-1.7013,-1.6992,-1.6975,-1.6976,-1.7003,-1.7003,-1.7004,0,-1.6371,-1.6419,-1.6468,-1.654,-1.6557,-1.6583,-1.6639,-1.6674,-1.673,-1.6758,-1.6796,-1.6835,-1.6874,-1.6889,-1.6944,-1.6938,-1.6964,-1.699,-1.6991,-1.6999,-1.7016,-1.7,-1.6977,-1.6978,-1.7006,-1.7005,-1.7005,0,-1.6326,-1.6402,-1.6442,-1.6469,-1.6553,-1.657,-1.6606,-1.6663,-1.6694,-1.6742,-1.6763,-1.6814,-1.6843,-1.6882,-1.6934,-1.6941,-1.6984,-1.7004,-1.7009,-1.7008,-1.7017,-1.7015,-1.6998,-1.703,-1.703,-1.703,-1.703,0,-1.6312,-1.6341,-1.6424,-1.6448,-1.6482,-1.6541,-1.6573,-1.6613,-1.6664,-1.6698,-1.6746,-1.6776,-1.6843,-1.6881,-1.6922,-1.6963,-1.6974,-1.6999,-1.7009,-1.6995,-1.6992,-1.7013,-1.7015,-1.703,-1.703,-1.703,-1.703,0,-1.6268,-1.6324,-1.6372,-1.6448,-1.6469,-1.649,-1.6556,-1.6582,-1.6625,-1.6667,-1.6681,-1.6748,-1.6796,-1.6852,-1.6918,-1.6946,-1.6984,-1.6998,-1.6965,-1.6972,-1.6974,-1.6974,-1.6971,-1.6975,-1.7002,-1.7002,-1.7001,0,-1.6256,-1.628,-1.636,-1.6387,-1.6422,-1.6463,-1.6496,-1.6555,-1.6587,-1.6654,-1.6672,-1.6725,-1.677,-1.6845,-1.6899,-1.6951,-1.6968,-1.6964,-1.6976,-1.6962,-1.697,-1.6969,-1.6972,-1.696,-1.696,-1.6959,-1.6959,0,-1.623,-1.6258,-1.6303,-1.6358,-1.6396,-1.6442,-1.649,-1.6509,-1.6578,-1.6611,-1.6662,-1.6697,-1.6766,-1.6818,-1.6877,-1.6914,-1.6948,-1.6955,-1.6959,-1.6945,-1.6926,-1.6938,-1.6957,-1.6955,-1.6955,-1.6955,-1.6956,-1.6956,-1.6204,-1.6228,-1.6289,-1.6338,-1.6381,-1.6425,-1.6455,-1.6502,-1.6546,-1.6608,-1.664,-1.6691,-1.6749,-1.6831,-1.6867,-1.6908,-1.692,-1.6925,-1.6927,-1.6928,-1.6925,-1.6918,-1.6919,-1.6919,-1.6919,-1.6919,-1.6919,0,-1.6182,-1.6225,-1.6269,-1.6336,-1.6375,-1.6405,-1.6461,-1.6491,-1.6536,-1.6587,-1.6631,-1.6691,-1.6742,-1.6801,-1.6857,-1.6878,-1.6895,-1.689,-1.689,-1.6898,-1.691,-1.6902,-1.6876,-1.6876,-1.6876,-1.6876,-1.6876,-1.6876,-1.6176,-1.6219,-1.6254,-1.632,-1.6363,-1.6414,-1.6443,-1.6485,-1.6527,-1.6591,-1.6635,-1.6674,-1.6729,-1.6789,-1.6837,-1.6853,-1.6872,-1.6863,-1.6883,-1.6894,-1.6897,-1.6901,-1.6893,-1.6866,-1.6866,-1.6869,-1.6869,-1.6869]}]]